Weather History for PATO - January, 2013

Change the Weather History Date:

Tuesday, January 1, 2013

  Actual Average Record
Temperature  
Mean Temperature 34 °F -  
Max Temperature 37 °F - - ()
Min Temperature 32 °F - - ()
Degree Days  
Heating Degree Days 30    
Moisture  
Dew Point 33 °F    
Average Humidity 90    
Maximum Humidity 100    
Minimum Humidity 76    
Precipitation  
Precipitation 2.62 in - - ()
Sea Level Pressure  
Sea Level Pressure 29.41 in    
Wind  
Wind Speed 17 mph (ESE)    
Max Wind Speed 23 mph    
Max Gust Speed 51 mph    
Visibility 3 miles    
Events Rain , Snow    
T = Trace of Precipitation, MM = Missing Value Source: NWS Daily Summary

Daily Weather History Graph

Daily Weather History Graph

Search for Another Location

Airport or City:

Trip Planner

Search our weather history database for the weather conditions in past years. The results will help you decide how hot, cold, wet, or windy it might be!

Date:

Astronomy

Jan. 01, 2013 Rise Set
Actual Time 10:04 AM AKST 3:53 PM AKST
Civil Twilight 9:05 AM AKST 4:53 PM AKST
Nautical Twilight 8:07 AM AKST 5:51 PM AKST
Astronomical Twilight 7:15 AM AKST 6:43 PM AKST
Moon 10:05 PM AKST (1/1) 10:58 AM AKST (1/1)
Length of Visible Light 7h 47m
Length of Day
5h 49m
Waning Gibbous, 82% of the Moon is Illuminated
Jan 1
Waning Gibbous
Jan 4
Last Quarter
Jan 11
New
Jan 18
First Quarter
Jan 26
Full

Hourly Weather History & Observations

Time (AKST) Temp. Windchill Dew Point Humidity Pressure Visibility Wind Dir Wind Speed Gust Speed Precip Events Conditions
12:06 AM 36.0 °F 24.7 °F 33.1 °F 89% 29.67 in 1.8 mi ESE 21.9 mph 46.0 mph 0.08 in Rain Heavy Rain
12:19 AM 36.0 °F 24.4 °F 34.0 °F 93% 29.67 in 1.8 mi ESE 23.0 mph 50.6 mph 0.15 in Rain Heavy Rain
12:53 AM 35.1 °F 24.5 °F 33.1 °F 92% 29.66 in 1.2 mi East 18.4 mph 46.0 mph 0.33 in Snow Light Snow
1:53 AM 33.1 °F 23.0 °F 32.0 °F 96% 29.63 in 1.0 mi ESE 15.0 mph 31.1 mph 0.30 in Snow Light Snow
2:19 AM 32.0 °F 21.6 °F 32.0 °F 100% 29.60 in 0.8 mi SE 15.0 mph 25.3 mph 0.11 in Snow Light Snow
2:42 AM 33.1 °F 22.6 °F 32.0 °F 96% 29.59 in 1.0 mi SE 16.1 mph 29.9 mph 0.20 in Snow Light Snow
3:53 AM 35.1 °F 24.5 °F 33.1 °F 92% 29.57 in 1.2 mi ESE 18.4 mph 34.5 mph 0.28 in Snow Light Snow
4:53 AM 35.1 °F 23.5 °F 34.0 °F 96% 29.54 in 1.5 mi East 21.9 mph 41.4 mph 0.27 in Snow Light Snow
5:53 AM 35.1 °F 23.8 °F 35.1 °F 100% 29.54 in 1.8 mi ESE 20.7 mph 34.5 mph 0.20 in Snow Light Snow
6:24 AM 35.1 °F 24.8 °F 35.1 °F 100% 29.52 in 2.0 mi ESE 17.3 mph 25.3 mph 0.07 in Snow Light Snow
6:36 AM 35.1 °F 26.9 °F 35.1 °F 100% 29.52 in 1.5 mi ESE 11.5 mph 25.3 mph 0.09 in Snow Light Snow
6:48 AM 33.8 °F 25.8 °F 33.8 °F 100% 29.52 in 1.5 mi East 10.4 mph 32.2 mph 0.13 in Snow Light Snow
6:53 AM 34.0 °F 23.8 °F 34.0 °F 100% 29.52 in 1.5 mi East 16.1 mph 32.2 mph 0.14 in Snow Light Snow
7:05 AM 35.1 °F 27.9 °F 33.1 °F 92% 29.50 in 2.0 mi East 9.2 mph 33.4 mph 0.03 in Snow Light Snow
7:21 AM 36.0 °F 28.5 °F 33.1 °F 89% 29.49 in 2.5 mi ESE 10.4 mph 28.8 mph 0.05 in Snow Light Snow
7:53 AM 36.0 °F 27.5 °F 33.1 °F 89% 29.48 in 2.5 mi ESE 12.7 mph 32.2 mph 0.11 in Snow Light Snow
8:53 AM 36.0 °F 26.3 °F 32.0 °F 86% 29.45 in 2.5 mi East 16.1 mph 38.0 mph 0.13 in Snow Light Snow
9:53 AM 36.0 °F 26.3 °F 33.1 °F 89% 29.43 in 2.0 mi East 16.1 mph 27.6 mph 0.11 in Snow Light Snow
10:16 AM 37.0 °F 27.4 °F 32.0 °F 82% 29.41 in 2.0 mi East 17.3 mph 44.9 mph 0.04 in Snow Light Snow
10:24 AM 37.0 °F 27.0 °F 33.1 °F 86% 29.41 in 1.0 mi ESE 18.4 mph 46.0 mph 0.06 in Rain Rain
10:49 AM 37.4 °F 26.6 °F 32.0 °F 81% 29.40 in 2.5 mi East 21.9 mph 42.6 mph 0.08 in Rain Light Rain
10:53 AM 37.9 °F 27.9 °F 32.0 °F 79% 29.39 in 2.5 mi East 19.6 mph 49.5 mph 0.09 in Rain Light Rain
11:13 AM 37.9 °F 28.5 °F 33.1 °F 83% 29.39 in 1.8 mi East 17.3 mph 44.9 mph 0.04 in Rain Rain
11:25 AM 37.0 °F 26.4 °F 33.1 °F 86% 29.38 in 1.5 mi East 20.7 mph 43.7 mph 0.07 in Rain Rain
11:53 AM 37.9 °F 27.1 °F 33.1 °F 83% 29.37 in 1.5 mi ESE 23.0 mph 41.4 mph 0.15 in Rain Rain
12:28 PM 37.0 °F 28.5 °F 33.1 °F 86% 29.35 in 2.5 mi ESE 13.8 mph 27.6 mph 0.10 in Rain Rain
12:51 PM 37.4 °F 26.9 °F 33.8 °F 87% 29.35 in 2.0 mi East 20.7 mph 41.4 mph 0.15 in Rain Rain
12:53 PM 37.0 °F 28.9 °F 33.1 °F 86% 29.35 in 2.0 mi East 12.7 mph 41.4 mph 0.15 in Rain Rain
1:02 PM 37.0 °F 27.7 °F 33.1 °F 86% 29.34 in 1.8 mi East 16.1 mph 33.4 mph 0.03 in Rain Rain
1:23 PM 36.0 °F 26.3 °F 33.1 °F 89% 29.34 in 2.0 mi East 16.1 mph 28.8 mph 0.08 in Rain Rain
1:43 PM 36.0 °F 27.1 °F 33.1 °F 89% 29.31 in 1.5 mi ESE 13.8 mph 40.3 mph 0.13 in Rain Rain
1:53 PM 37.0 °F 27.0 °F 33.1 °F 86% 29.32 in 1.8 mi ESE 18.4 mph 32.2 mph 0.15 in Rain Rain
2:00 PM 37.0 °F 27.7 °F 33.1 °F 86% 29.32 in 2.0 mi East 16.1 mph 32.2 mph 0.02 in Rain Rain
2:34 PM 36.0 °F 28.5 °F 33.1 °F 89% 29.31 in 1.5 mi ESE 10.4 mph 26.5 mph 0.08 in Snow Light Snow
2:53 PM 35.1 °F 26.4 °F 33.1 °F 92% 29.30 in 1.5 mi East 12.7 mph 25.3 mph 0.11 in Snow Light Snow
3:12 PM 35.1 °F 26.9 °F 33.1 °F 92% 29.28 in 2.5 mi SE 11.5 mph 24.2 mph 0.03 in Snow Light Snow
3:47 PM 35.6 °F 26.6 °F 33.8 °F 93% 29.27 in 3.0 mi ESE 13.8 mph 20.7 mph 0.07 in Rain Light Rain
3:53 PM 35.1 °F 25.5 °F 32.0 °F 89% 29.27 in 4.0 mi SE 15.0 mph 21.9 mph 0.07 in Rain Light Rain
4:53 PM 33.1 °F 25.5 °F 32.0 °F 96% 29.26 in 6.0 mi SSE 9.2 mph - 0.02 in Snow Light Snow
5:20 PM 34.0 °F 29.8 °F 33.1 °F 96% 29.25 in 8.0 mi Variable 4.6 mph - 0.00 in Snow Light Snow
5:53 PM 34.0 °F 31.0 °F 33.1 °F 96% 29.24 in 10.0 mi South 3.5 mph - 0.00 in   Overcast
6:53 PM 34.0 °F 27.2 °F 33.1 °F 96% 29.24 in 10.0 mi SE 8.1 mph 17.3 mph N/A   Overcast
7:53 PM 34.0 °F 28.8 °F 32.0 °F 92% 29.27 in 10.0 mi SE 5.8 mph - N/A   Overcast
8:53 PM 35.1 °F 27.4 °F 33.1 °F 92% 29.29 in 10.0 mi SE 10.4 mph 19.6 mph N/A   Overcast
9:53 PM 36.0 °F 26.0 °F 32.0 °F 86% 29.32 in 7.0 mi ESE 17.3 mph 25.3 mph 0.00 in Rain Light Rain
10:53 PM 37.9 °F 28.5 °F 30.9 °F 76% 29.34 in 10.0 mi East 17.3 mph 29.9 mph 0.00 in Rain Light Rain
11:53 PM 37.0 °F 26.7 °F 30.9 °F 79% 29.35 in 6.0 mi ESE 19.6 mph 34.5 mph 0.01 in Snow Light Snow